Simultaneous Nadir Overpasses (SNOs) Predictions

Prediction of SNOs between FY3D and TERRA Satellite Orbit:

Table of predicted SNOs for the next 14.0 days since TLE Epoch: 5/13/2023
Index Date (FY3D) Time (FY3D) Lat,Lon (FY3D) SZA (FY3D ) Date (TERRA) Time (TERRA) Lat,Lon (TERRA) SZA (TERRA ) Distance(km) Time Diff (sec)
1 05/15/2023 01:09:55 -73.39, -17.63 125.47 05/15/2023 01:10:38 -73.38, -17.64 125.49 1.71 43
2 05/15/2023 02:00:40 73.32, 149.84 54.46 05/15/2023 02:00:01 73.31, 149.88 54.44 2.14 39
3 05/17/2023 13:14:00 73.42, -18.67 53.98 05/17/2023 13:14:41 73.42, -18.60 53.98 2.31 41
4 05/17/2023 14:04:43 -73.31, 148.89 126.14 05/17/2023 14:04:06 -73.31, 148.84 126.14 1.60 37
5 05/20/2023 01:18:03 -73.41, -19.62 126.58 05/20/2023 01:18:46 -73.39, -19.69 126.59 2.59 43
6 05/20/2023 02:08:48 73.35, 147.82 53.36 05/20/2023 02:08:08 73.37, 147.91 53.37 3.57 40
7 05/22/2023 13:22:07 73.41, -20.61 52.91 05/22/2023 13:22:48 73.41, -20.69 52.92 2.66 41
8 05/22/2023 14:12:51 -73.34, 146.86 127.16 05/22/2023 14:12:12 -73.37, 146.87 127.14 2.86 39
9 05/25/2023 01:26:10 -73.45, -21.69 127.52 05/25/2023 01:26:50 -73.44, -21.67 127.53 1.69 40
10 05/25/2023 02:16:54 73.36, 145.84 52.38 05/25/2023 02:16:13 73.35, 145.80 52.37 1.69 41



Historial Predications of SNOs between FY3D and TERRA
